�������l�o���
Date,Time,MP-1(��Sv/h),MP-2(��Sv/h),MP-3(��Sv/h),MP-4(��Sv/h),MP-5(��Sv/h),MP-6(��Sv/h),MP-7(��Sv/h),MP-8(��Sv/h),����,����(m/s),���J
2020/02/09,00:00,0.705,1.017,0.659,1.264,0.885,0.399,0.706,0.671,�k��,9.3,��
2020/02/09,00:10,0.706,1.018,0.658,1.264,0.884,0.399,0.707,0.672,�k��,11.3,��
2020/02/09,00:20,0.707,1.018,0.659,1.264,0.886,0.399,0.708,0.673,�k��,8.8,��
2020/02/09,00:30,0.705,1.018,0.661,1.265,0.884,0.401,0.707,0.672,�k��,8.5,��
2020/02/09,00:40,0.706,1.019,0.660,1.266,0.884,0.400,0.708,0.672,�k��,8.2,��
2020/02/09,00:50,0.705,1.020,0.661,1.266,0.883,0.402,0.706,0.671,���k��,7.4,��
2020/02/09,01:00,0.706,1.020,0.661,1.265,0.885,0.401,0.706,0.671,���k��,8.0,��
2020/02/09,01:10,0.704,1.020,0.661,1.266,0.885,0.402,0.706,0.670,���k��,8.9,��
2020/02/09,01:20,0.706,1.020,0.660,1.265,0.884,0.402,0.707,0.670,���k��,7.2,��
2020/02/09,01:30,0.706,1.021,0.660,1.267,0.885,0.400,0.704,0.671,�k��,8.0,��
2020/02/09,01:40,0.704,1.019,0.659,1.264,0.884,0.401,0.705,0.672,�k��,8.8,��
2020/02/09,01:50,0.705,1.022,0.660,1.265,0.884,0.402,0.705,0.671,���k��,8.8,��
2020/02/09,02:00,0.705,1.020,0.660,1.268,0.883,0.402,0.704,0.672,�k��,5.8,��
2020/02/09,02:10,0.705,1.021,0.661,1.266,0.883,0.401,0.705,0.672,�k��,7.1,��
2020/02/09,02:20,0.703,1.020,0.661,1.264,0.883,0.400,0.704,0.671,�k��,7.4,��
2020/02/09,02:30,0.705,1.020,0.660,1.266,0.883,0.403,0.706,0.671,�k��,7.7,��
2020/02/09,02:40,0.705,1.024,0.659,1.264,0.882,0.400,0.707,0.671,�k��,7.4,��
2020/02/09,02:50,0.706,1.021,0.661,1.265,0.883,0.400,0.708,0.672,�k��,7.2,��
2020/02/09,03:00,0.705,1.020,0.661,1.266,0.882,0.400,0.706,0.672,�k��,8.5,��
2020/02/09,03:10,0.705,1.021,0.660,1.263,0.883,0.400,0.705,0.672,�k��,8.5,��
2020/02/09,03:20,0.704,1.020,0.660,1.266,0.880,0.401,0.705,0.671,�k��,6.6,��
2020/02/09,03:30,0.703,1.021,0.659,1.266,0.880,0.401,0.708,0.671,�k��,9.1,��
2020/02/09,03:40,0.703,1.019,0.659,1.262,0.881,0.402,0.705,0.669,�k��,7.2,��
2020/02/09,03:50,0.703,1.021,0.659,1.266,0.881,0.401,0.706,0.671,�k��,8.5,��
2020/02/09,04:00,0.703,1.019,0.658,1.263,0.880,0.401,0.706,0.670,�k�k��,7.4,��
2020/02/09,04:10,0.703,1.019,0.659,1.264,0.880,0.402,0.706,0.671,�k��,4.5,��
2020/02/09,04:20,0.704,1.020,0.660,1.264,0.880,0.400,0.705,0.671,�k��,4.2,��
2020/02/09,04:30,0.703,1.021,0.659,1.264,0.879,0.401,0.706,0.672,�k��,4.1,��
2020/02/09,04:40,0.703,1.019,0.660,1.265,0.880,0.400,0.706,0.672,�k��,2.3,��
2020/02/09,04:50,0.704,1.019,0.659,1.265,0.882,0.401,0.706,0.671,�k��,1.8,��
2020/02/09,05:00,0.705,1.022,0.659,1.263,0.883,0.401,0.706,0.671,�k�k��,1.1,��
2020/02/09,05:10,0.703,1.019,0.659,1.263,0.881,0.401,0.703,0.670,�k,1.6,��
2020/02/09,05:20,0.704,1.020,0.658,1.263,0.881,0.401,0.706,0.671,�k�k��,1.0,��
2020/02/09,05:30,0.701,1.020,0.658,1.264,0.881,0.400,0.706,0.671,�k,0.7,��
2020/02/09,05:40,0.703,1.021,0.660,1.265,0.881,0.401,0.706,0.670,�k,1.5,��
2020/02/09,05:50,0.702,1.020,0.659,1.266,0.883,0.403,0.704,0.671,�k�k��,2.1,��
2020/02/09,06:00,0.702,1.018,0.661,1.265,0.883,0.401,0.706,0.671,�k�k��,2.4,��
2020/02/09,06:10,0.704,1.019,0.658,1.265,0.882,0.402,0.707,0.669,�k�k��,3.6,��
2020/02/09,06:20,0.704,1.020,0.659,1.264,0.882,0.400,0.707,0.671,�k,3.4,��
2020/02/09,06:30,0.704,1.020,0.659,1.264,0.882,0.401,0.706,0.670,�k,3.8,��
2020/02/09,06:40,0.705,1.020,0.659,1.265,0.880,0.401,0.705,0.672,�k�k��,3.5,��
2020/02/09,06:50,0.703,1.020,0.658,1.265,0.883,0.401,0.706,0.672,�k�k��,2.7,��
2020/02/09,07:00,0.703,1.019,0.658,1.266,0.880,0.402,0.706,0.671,�k,3.9,��
2020/02/09,07:10,0.704,1.018,0.660,1.268,0.881,0.401,0.706,0.671,�k,1.5,��
2020/02/09,07:20,0.704,1.019,0.660,1.266,0.885,0.401,0.706,0.671,�k,1.4,��
2020/02/09,07:30,0.703,1.021,0.658,1.265,0.883,0.402,0.706,0.671,�k�k��,2.3,��
2020/02/09,07:40,0.705,1.021,0.660,1.264,0.882,0.400,0.707,0.671,�k��,2.9,��
2020/02/09,07:50,0.704,1.020,0.658,1.266,0.881,0.400,0.707,0.670,�k�k��,6.4,��
2020/02/09,08:00,0.703,1.020,0.658,1.264,0.882,0.401,0.705,0.671,�k��,5.2,��
2020/02/09,08:10,0.704,1.022,0.659,1.265,0.881,0.401,0.706,0.669,�k�k��,5.3,��
2020/02/09,08:20,0.704,1.020,0.660,1.266,0.880,0.398,0.706,0.670,�k��,6.0,��
2020/02/09,08:30,0.704,1.022,0.658,1.265,0.880,0.399,0.706,0.671,�k��,7.5,��
2020/02/09,08:40,0.705,1.021,0.659,1.264,0.882,0.399,0.707,0.671,�k��,9.1,��
2020/02/09,08:50,0.703,1.020,0.659,1.265,0.882,0.399,0.703,0.672,���k��,6.1,��
2020/02/09,09:00,0.704,1.021,0.659,1.267,0.884,0.398,0.704,0.668,�k��,9.4,��
2020/02/09,09:10,0.703,1.019,0.658,1.266,0.881,0.400,0.705,0.671,�k��,5.2,��
2020/02/09,09:20,0.703,1.021,0.661,1.267,0.882,0.399,0.704,0.669,�k��,6.7,��
2020/02/09,09:30,0.704,1.022,0.660,1.265,0.882,0.400,0.706,0.670,�k�k��,9.1,��
2020/02/09,09:40,0.702,1.022,0.661,1.266,0.882,0.399,0.706,0.672,�k��,9.1,��
2020/02/09,09:50,0.706,1.021,0.660,1.265,0.884,0.400,0.706,0.671,�k�k��,8.9,��
2020/02/09,10:00,0.705,1.023,0.660,1.266,0.882,0.402,0.707,0.671,�k��,5.6,��
2020/02/09,10:10,0.705,1.022,0.661,1.266,0.885,0.401,0.706,0.672,�k��,10.7,��
2020/02/09,10:20,0.706,1.022,0.662,1.266,0.884,0.402,0.706,0.672,�k��,12.4,��
2020/02/09,10:30,0.706,1.023,0.661,1.267,0.883,0.401,0.707,0.672,�k��,11.2,��
2020/02/09,10:40,0.708,1.024,0.660,1.266,0.884,0.401,0.707,0.672,�k��,10.5,��
2020/02/09,10:50,0.707,1.024,0.660,1.266,0.883,0.401,0.706,0.672,�k��,9.9,��
2020/02/09,11:00,0.706,1.025,0.661,1.267,0.886,0.400,0.707,0.671,�k��,9.9,��
2020/02/09,11:10,0.705,1.023,0.661,1.266,0.887,0.401,0.707,0.672,�k��,12.3,��
2020/02/09,11:20,0.705,1.025,0.660,1.267,0.882,0.401,0.708,0.672,���k��,7.1,��
2020/02/09,11:30,0.705,1.023,0.663,1.269,0.885,0.401,0.708,0.670,�k��,10.2,��
2020/02/09,11:40,0.707,1.023,0.662,1.268,0.888,0.401,0.707,0.672,�k��,8.5,��
2020/02/09,11:50,0.706,1.025,0.660,1.268,0.888,0.400,0.709,0.672,�k��,9.6,��
2020/02/09,12:00,0.708,1.023,0.661,1.268,0.886,0.401,0.707,0.672,�k��,11.0,��
2020/02/09,12:10,0.707,1.026,0.661,1.267,0.888,0.404,0.708,0.671,�k��,9.6,��
2020/02/09,12:20,0.708,1.026,0.662,1.266,0.888,0.402,0.705,0.672,�k��,11.3,��
2020/02/09,12:30,0.707,1.026,0.661,1.269,0.888,0.403,0.708,0.671,�k��,8.2,��
2020/02/09,12:40,0.707,1.025,0.661,1.269,0.888,0.403,0.707,0.673,���k��,8.3,��
2020/02/09,12:50,0.708,1.024,0.662,1.269,0.888,0.401,0.709,0.671,�k��,8.3,��
2020/02/09,13:00,0.710,1.024,0.661,1.268,0.887,0.403,0.707,0.673,�k��,9.7,��
2020/02/09,13:10,0.708,1.026,0.662,1.269,0.888,0.402,0.707,0.671,�k��,9.9,��
2020/02/09,13:20,0.708,1.026,0.663,1.269,0.886,0.402,0.707,0.672,�k��,9.4,��
2020/02/09,13:30,0.709,1.025,0.662,1.269,0.887,0.401,0.707,0.671,�k��,11.9,��
2020/02/09,13:40,0.707,1.028,0.662,1.268,0.887,0.401,0.708,0.673,�k��,8.8,��
2020/02/09,13:50,0.709,1.027,0.662,1.270,0.888,0.403,0.706,0.671,�k��,6.0,��
2020/02/09,14:00,0.707,1.026,0.663,1.268,0.888,0.403,0.707,0.671,���k��,13.6,��
2020/02/09,14:10,0.708,1.026,0.664,1.268,0.889,0.401,0.707,0.672,���k��,9.4,��
2020/02/09,14:20,0.709,1.028,0.662,1.269,0.888,0.402,0.707,0.674,���k��,8.2,��
2020/02/09,14:30,0.710,1.026,0.663,1.269,0.889,0.402,0.707,0.672,���k��,7.7,��
2020/02/09,14:40,0.707,1.028,0.665,1.273,0.891,0.402,0.708,0.672,���k��,6.3,��
2020/02/09,14:50,0.707,1.026,0.662,1.269,0.890,0.404,0.708,0.671,���k��,7.5,��
2020/02/09,15:00,0.706,1.027,0.662,1.269,0.891,0.401,0.709,0.671,���k��,7.1,��
2020/02/09,15:10,0.708,1.026,0.663,1.268,0.889,0.402,0.708,0.671,���k��,5.6,��
2020/02/09,15:20,0.706,1.024,0.663,1.270,0.891,0.401,0.709,0.672,�k��,8.6,��
2020/02/09,15:30,0.710,1.027,0.662,1.271,0.892,0.399,0.708,0.672,���k��,6.6,��
2020/02/09,15:40,0.707,1.027,0.663,1.269,0.887,0.402,0.706,0.673,���k��,6.7,��
2020/02/09,15:50,0.705,1.027,0.666,1.268,0.890,0.403,0.708,0.672,���k��,6.3,��
2020/02/09,16:00,0.707,1.027,0.663,1.271,0.890,0.402,0.708,0.671,�k��,8.2,��
2020/02/09,16:10,0.709,1.025,0.663,1.269,0.889,0.403,0.707,0.671,�k��,7.5,��
2020/02/09,16:20,0.708,1.025,0.663,1.268,0.890,0.403,0.707,0.671,���k��,9.1,��
2020/02/09,16:30,0.709,1.026,0.661,1.269,0.889,0.402,0.707,0.672,���k��,7.7,��
2020/02/09,16:40,0.706,1.027,0.661,1.270,0.888,0.401,0.708,0.671,���k��,8.5,��
2020/02/09,16:50,0.708,1.023,0.661,1.270,0.889,0.400,0.706,0.671,���k��,8.3,��
2020/02/09,17:00,0.706,1.023,0.661,1.270,0.890,0.400,0.708,0.673,�k��,7.4,��
2020/02/09,17:10,0.707,1.024,0.659,1.269,0.890,0.400,0.707,0.671,���k��,8.0,��
2020/02/09,17:20,0.707,1.023,0.660,1.268,0.889,0.400,0.707,0.672,���k��,6.6,��
2020/02/09,17:30,0.707,1.025,0.659,1.269,0.890,0.400,0.708,0.670,�k��,6.6,��
2020/02/09,17:40,0.706,1.027,0.661,1.269,0.889,0.399,0.706,0.672,�k��,6.7,��
2020/02/09,17:50,0.707,1.024,0.660,1.268,0.890,0.399,0.707,0.672,�k��,6.9,��
2020/02/09,18:00,0.706,1.022,0.662,1.268,0.888,0.400,0.707,0.671,���k��,5.0,��
2020/02/09,18:10,0.705,1.024,0.662,1.268,0.888,0.401,0.707,0.672,�k��,4.7,��
2020/02/09,18:20,0.708,1.021,0.661,1.268,0.888,0.400,0.708,0.672,�k��,6.3,��
2020/02/09,18:30,0.706,1.025,0.663,1.269,0.886,0.403,0.708,0.671,���k��,5.5,��
2020/02/09,18:40,0.704,1.024,0.662,1.267,0.888,0.403,0.705,0.673,�k��,7.5,��
2020/02/09,18:50,0.706,1.026,0.662,1.269,0.887,0.401,0.707,0.672,���k��,6.1,��
2020/02/09,19:00,0.706,1.025,0.662,1.270,0.889,0.402,0.705,0.670,���k��,6.4,��
2020/02/09,19:10,0.706,1.025,0.660,1.272,0.888,0.401,0.706,0.674,���k��,6.0,��
2020/02/09,19:20,0.704,1.025,0.662,1.269,0.888,0.402,0.708,0.673,���k��,4.4,��
2020/02/09,19:30,0.707,1.025,0.662,1.268,0.888,0.401,0.707,0.671,���k��,3.3,��
2020/02/09,19:40,0.707,1.023,0.662,1.268,0.888,0.402,0.708,0.670,��,2.6,��
2020/02/09,19:50,0.704,1.025,0.661,1.269,0.885,0.402,0.707,0.670,���k��,2.9,��
2020/02/09,20:00,0.705,1.023,0.662,1.269,0.891,0.402,0.707,0.671,���k��,2.7,��
2020/02/09,20:10,0.704,1.023,0.661,1.269,0.888,0.401,0.706,0.671,���k��,3.5,��
2020/02/09,20:20,0.706,1.025,0.662,1.268,0.889,0.401,0.707,0.671,��,3.9,��
2020/02/09,20:30,0.705,1.026,0.662,1.268,0.886,0.402,0.706,0.671,��,3.0,��
2020/02/09,20:40,0.706,1.024,0.660,1.267,0.887,0.402,0.708,0.671,���k��,2.6,��
2020/02/09,20:50,0.705,1.022,0.660,1.268,0.888,0.402,0.706,0.671,��,1.8,��
2020/02/09,21:00,0.705,1.024,0.660,1.268,0.888,0.402,0.706,0.671,���k��,2.4,��
2020/02/09,21:10,0.704,1.022,0.662,1.268,0.887,0.402,0.706,0.671,��,2.8,��
2020/02/09,21:20,0.705,1.025,0.661,1.267,0.889,0.401,0.708,0.671,���k��,3.2,��
2020/02/09,21:30,0.704,1.023,0.660,1.268,0.887,0.402,0.706,0.671,���k��,2.7,��
2020/02/09,21:40,0.706,1.026,0.663,1.267,0.887,0.401,0.705,0.671,��,2.6,��
2020/02/09,21:50,0.704,1.025,0.660,1.269,0.887,0.402,0.705,0.673,��,3.2,��
2020/02/09,22:00,0.704,1.026,0.661,1.268,0.886,0.400,0.706,0.671,���k��,2.8,��
2020/02/09,22:10,0.704,1.023,0.662,1.267,0.886,0.402,0.706,0.671,���k��,2.9,��
2020/02/09,22:20,0.705,1.023,0.662,1.266,0.887,0.401,0.706,0.669,���k��,4.5,��
2020/02/09,22:30,0.705,1.023,0.661,1.270,0.887,0.401,0.706,0.670,���k��,4.6,��
2020/02/09,22:40,0.705,1.024,0.661,1.267,0.887,0.402,0.707,0.671,���k��,4.6,��
2020/02/09,22:50,0.707,1.024,0.661,1.268,0.887,0.401,0.705,0.672,��,4.9,��
2020/02/09,23:00,0.705,1.026,0.662,1.270,0.887,0.403,0.707,0.671,��,4.6,��
2020/02/09,23:10,0.706,1.022,0.662,1.267,0.886,0.401,0.706,0.673,���쐼,4.1,��
2020/02/09,23:20,0.705,1.022,0.659,1.269,0.886,0.401,0.705,0.671,���쐼,4.1,��
2020/02/09,23:30,0.702,1.023,0.661,1.267,0.886,0.400,0.706,0.670,��,3.3,��
2020/02/09,23:40,0.705,1.024,0.660,1.268,0.887,0.401,0.705,0.671,��,2.7,��
2020/02/09,23:50,0.705,1.022,0.660,1.269,0.886,0.402,0.707,0.671,��,3.1,��
